Location: Newark
(44.0160°N, 116.9215°W)
Time: 00:36:19
(UTC+00:00)

Envisat - Pass Details

Date: 27 November 2019
Orbit: 764 x 766 km, 98.1° (Epoch: 15 December)

Event Time Altitude Azimuth Distance (km) Brightness Sun altitude
Rises 14:22:54 0° 16° (NNE) 3,241 6.2 -6.4°
Reaches altitude 10° 14:25:16 10° 21° (NNE) 2,310 5.5 -6.1°
Maximum altitude 14:30:17 58° 100° (E) 890 3.8 -5.2°
Drops below altitude 10° 14:35:16 10° 180° (S) 2,293 5.8 -4.4°
Sets 14:37:36 0° 184° (S) 3,215 6.5 -4.0°
